Regional Weather Roundup
Issued by NWS Sterling, VA

Home | Current Version | Previous Version | Text Only | Print | Product List | Glossary On
Versions: 1 2 3 4 5 6 7 8 9 10 11 12 13 14 15 16 17 18 19 20 21 22 23 24 25 26 27 28 29 30 31 32 33 34 35 36 37 38 39 40 41 42 43 44 45 46 47 48 49 50
000
ASUS41 KLWX 311010
RWRLWX

REGIONAL WEATHER ROUNDUP
NATIONAL WEATHER SERVICE BALTIMORE MD/WASHINGTON DC
500 AM EST SAT JAN 31 2015

Note: "FAIR" indicates few or no clouds below 12,000 feet
with no significant weather and/or obstructions to visibility.
 TC=TEMPERATURE CELSIUS

 * =Non NWS site. Station does not report precipitation (e.g. rain,
    snow, etc.), thunder, or fog.

DCZ001-MDZ009-015-VAZ040>042-051-053>054-311100-
WASHINGTON METRO

CITY           SKY/WX    TMP DP  RH WIND       PRES   REMARKS
WASHINGTON NAT CLEAR     21   4  47 NW12      30.31S WCI   9
DULLES         CLEAR     17   3  54 N13G23    30.29S WCI   4
ANDREWS AFB    CLEAR     18   3  53 NW21G31   30.26F WCI   1
FT BELVOIR     CLEAR     19   3  48 NW14G21   30.31S WCI   6
QUANTICO       CLEAR     20   4  50 N9        30.32F WCI   9
COLLEGE PARK*  CLEAR     21   7  53 NW9       30.28F WCI  11
LEESBURG*      CLEAR     19   9  63 NW18G25   30.29F WCI   4
MANASSAS*      CLEAR     19   7  58 NW20      30.29F WCI   4
GAITHERSBURG*  CLEAR     16   3  57 NW9G20    30.29S WCI   4

$$

MDZ006>007-011-014-311100-
BALTIMORE METRO

CITY           SKY/WX    TMP DP  RH WIND       PRES   REMARKS
BWI AIRPORT    CLEAR     17   4  56 NW16G22   30.26S WCI   2
MD SCIENCE CTR   N/A     19   2  47 MISG      30.27S
MARTIN STATE   CLEAR     19   3  49 W15G24    30.28S WCI   5
ANNAPOLIS      FAIR      20   7  57 NW12      30.26S WCI   8
FORT MEADE*    CLEAR     19   7  58 NW13G18   30.29S WCI   7

$$

MDZ012-015-019>023-311100-
MARYLAND EASTERN SHORE

CITY           SKY/WX    TMP DP  RH WIND       PRES   REMARKS
OCEAN CITY     CLEAR     19   1  45 NW13G30   30.19S WCI   6
SALISBURY      CLEAR     22   1  40 NW20G31   30.22R WCI   7
BAY BRIDGE AP*   N/A     21   5  49 NW23G29   30.27S WCI   5
CAMBRIDGE*     CLEAR     23   5  46 NW14G28   30.24S WCI  11
EASTON*        CLEAR     21   7  53 N17       30.28S WCI   7

$$

MDZ017>025-311100-
SOUTHERN MARYLAND

CITY           SKY/WX    TMP DP  RH WIND       PRES   REMARKS
PATUXENT RIVER CLEAR     20   5  52 NW26G35   30.26S WCI   2
ST INIGOES     CLEAR     20   3  48 VRB7G23   30.27S
LEONARDTOWN*   CLEAR     19   3  49 NW8       30.28F WCI   9

$$

MDZ003>005-311100-
NORTH CENTRAL MARYLAND

CITY           SKY/WX    TMP DP  RH WIND       PRES   REMARKS
FREDERICK*     CLEAR     19   3  49 NW12G18   30.31F WCI   7
HAGERSTOWN APT CLEAR     15   3  59 NW12      30.27F WCI   2
WESTMINSTER*   PTCLDY    14   1  57 NW12G20   30.22S WCI   0

$$

MDZ501>502-311100-
WESTERN MARYLAND

CITY           SKY/WX    TMP DP  RH WIND       PRES   REMARKS
OAKLAND*       CLEAR      3 N/A N/A W10G16    30.13F WCI -12
CUMBERLAND*    CLEAR     18   3  53 W12       30.36S WCI   5

$$

VAZ025>031-311100-
SHENANDOAH VALLEY

CITY           SKY/WX    TMP DP  RH WIND       PRES   REMARKS
WINCHESTER*    CLEAR     19   0  42 NW7       30.29S
FRONT ROYAL*   FAIR      19   1  45 N7        30.27S
LURAY*         FAIR      21   5  49 CALM      30.26F
NEW MARKET*    FAIR      14   5  67 CALM      30.26F
STAUNTON*      CLEAR     16   6  64 CALM      30.26S
WAYNESBORO*    FAIR      20  -1  39 W5        30.22S

$$

WVZ021-048>050-054>055-311100-
EASTERN WEST VIRGINIA PANHANDLE

CITY           SKY/WX    TMP DP  RH WIND       PRES   REMARKS
MARTINSBURG    CLEAR     17   2  51 NW14      30.30S WCI   3
PETERSBURG*    CLEAR     17  -3  41 NE5       30.30F

$$

VAZ036>039-050-311100-
CENTRAL FOOTHILLS

CITY           SKY/WX    TMP DP  RH WIND       PRES   REMARKS
CHARLOTTESVILL CLEAR     23   1  38 N6        30.26S
CULPEPER*      CLEAR     18   9  68 CALM      30.28S
ORANGE*        CLEAR     14  10  85 CALM      30.29S
GORDONSVILLE*  FAIR      15   8  72 CALM      30.28R
WARRENTON*     FAIR      20   9  62 NW8       30.28R WCI  11

$$

VAZ055>057-311100-
NORTH AND CENTRAL PIEDMONT

CITY           SKY/WX    TMP DP  RH WIND       PRES   REMARKS
FREDERICKSBRG* CLEAR     21   7  56 CALM      30.30S
STAFFORD*      CLEAR     19   3  51 CALM      30.34R

$$

NCZ024-NYZ072-PAZ021-071-VAZ022-071-311100-
OTHER REGIONAL OBSERVATIONS

CITY           SKY/WX    TMP DP  RH WIND       PRES   REMARKS
NEW YORK CITY  CLEAR     15  -3  44 NW18G32   30.11R WCI  -2
PHILADELPHIA   CLEAR     15  -3  44 NW18G28   30.21S WCI  -2
PITTSBURGH     PTCLDY     5   2  87 CALM      30.32F
ROANOKE        CLEAR     25   3  38 NW14      30.29S WCI  13
RICHMOND       CLEAR     20   7  57 N6        30.29S
RALEIGH        CLEAR     26   8  46 CALM      30.32S

$$

ANZ530>537-311100-
MARINE OBSERVATIONS

STATION/POSITION TIME  TEMP    WIND        PRES
                       AIR SEA DIR/SP/G
                 (UTC) (F)     (DEG/KT/KT) (MB)
THOMAS PT LIGHT  1000   20 34  320/ 17/ 23 1025.7R
BALT KEY BRIDGE  1000   19     300/ 20/ 26 1024.7F
COVE POINT       1000   19     340/ 26/ 32 1024.6S
LEWISETTA        1000   22 34  320/ 18/ 28 1025.2F
SOLOMONS ISLAND  1000      36                N/A
PINEY POINT      1000          340/ 25/ 29   N/A

$$



USA.gov is the U.S. government's official web portal to all federal, state and local government web resources and services.